| time (UTC) | temp C | wind direction | speed KPH | gust KPH | rain 1hr cm | rain 24hr cm | rain mn cm | humidity % | barometer mb |
| 20260507133054 | 10 | 95 | 0.0 | 9.7 | 0.00 | 0.99 | 0.05 | 80 | 1008.1 |
| 20260507132547 | 10 | 117 | 3.2 | 9.7 | 0.00 | 0.99 | 0.05 | 78 | 1008.2 |
| 20260507132046 | 10 | 137 | 3.2 | 9.7 | 0.00 | 0.99 | 0.05 | 79 | 1008.2 |
| 20260507131603 | 10 | 120 | 1.6 | 8.0 | 0.00 | 0.99 | 0.05 | 79 | 1008.1 |
| 20260507131049 | 10 | 148 | 1.6 | 4.8 | 0.00 | 0.99 | 0.05 | 82 | 1008.0 |
| 20260507130546 | 10 | 0 | 0.0 | 4.8 | 0.00 | 0.99 | 0.05 | 83 | 1008.2 |
| 20260507130108 | 10 | 113 | 1.6 | 6.4 | 0.00 | 0.99 | 0.05 | 82 | 1008.3 |
| 20260507125549 | 10 | 121 | 0.0 | 8.0 | 0.00 | 0.99 | 0.05 | 83 | 1008.4 |
| 20260507125046 | 9 | 0 | 1.6 | 8.0 | 0.00 | 0.99 | 0.05 | 80 | 1008.4 |
| 20260507124605 | 10 | 124 | 1.6 | 6.4 | 0.00 | 0.99 | 0.05 | 84 | 1008.4 |
| 20260507124048 | 10 | 115 | 1.6 | 6.4 | 0.00 | 0.99 | 0.05 | 84 | 1008.4 |
| 20260507123549 | 10 | 120 | 0.0 | 14.5 | 0.00 | 0.99 | 0.05 | 85 | 1008.4 |
| 20260507123059 | 9 | 118 | 3.2 | 14.5 | 0.00 | 0.99 | 0.05 | 85 | 1008.5 |
| 20260507122546 | 9 | 163 | 1.6 | 8.0 | 0.00 | 0.99 | 0.05 | 87 | 1008.4 |
| 20260507122049 | 9 | 0 | 3.2 | 6.4 | 0.00 | 0.99 | 0.05 | 86 | 1008.3 |
| 20260507121552 | 9 | 137 | 3.2 | 6.4 | 0.00 | 0.99 | 0.05 | 86 | 1008.4 |
| 20260507121048 | 9 | 117 | 1.6 | 6.4 | 0.00 | 0.99 | 0.05 | 86 | 1008.5 |
| 20260507120546 | 9 | 96 | 1.6 | 6.4 | 0.00 | 0.99 | 0.05 | 87 | 1008.3 |
| 20260507120049 | 9 | 126 | 1.6 | 6.4 | 0.00 | 0.99 | 0.05 | 88 | 1008.2 |
| 20260507115547 | 9 | 114 | 0.0 | 4.8 | 0.00 | 0.99 | 0.05 | 90 | 1008.3 |
| 20260507115046 | 8 | 112 | 1.6 | 4.8 | 0.00 | 0.99 | 0.05 | 90 | 1008.3 |
| 20260507114551 | 8 | 0 | 0.0 | 4.8 | 0.00 | 0.99 | 0.05 | 92 | 1008.3 |
| 20260507114046 | 8 | 0 | 0.0 | 4.8 | 0.00 | 0.99 | 0.05 | 93 | 1008.3 |
| 20260507113547 | 8 | 15 | 0.0 | 3.2 | 0.00 | 0.99 | 0.05 | 95 | 1008.2 |
| 20260507113048 | 7 | 0 | 0.0 | 0.0 | 0.00 | 0.99 | 0.05 | 95 | 1008.1 |
| 20260507112547 | 7 | 0 | 0.0 | 1.6 | 0.00 | 0.99 | 0.05 | 95 | 1008.2 |
| 20260507112047 | 7 | 0 | 0.0 | 1.6 | 0.00 | 0.99 | 0.05 | 95 | 1008.2 |
| 20260507111548 | 7 | 128 | 0.0 | 1.6 | 0.00 | 0.99 | 0.05 | 96 | 1008.1 |
| 20260507111047 | 7 | 0 | 0.0 | 1.6 | 0.00 | 0.99 | 0.05 | 96 | 1008.3 |
| 20260507110547 | 7 | 0 | 0.0 | 1.6 | 0.00 | 0.99 | 0.05 | 96 | 1008.2 |
| 20260507110048 | 7 | 0 | 0.0 | 1.6 | 0.00 | 0.99 | 0.05 | 96 | 1008.2 |
| 20260507105547 | 7 | 0 | 0.0 | 1.6 | 0.00 | 0.99 | 0.05 | 96 | 1008.0 |
| 20260507105046 | 7 | 0 | 0.0 | 3.2 | 0.00 | 0.99 | 0.05 | 96 | 1008.0 |
| 20260507104551 | 6 | 129 | 0.0 | 3.2 | 0.00 | 0.99 | 0.05 | 96 | 1008.1 |
| 20260507104045 | 6 | 0 | 0.0 | 1.6 | 0.00 | 0.99 | 0.05 | 96 | 1007.8 |
| 20260507103546 | 6 | 115 | 0.0 | 1.6 | 0.00 | 0.99 | 0.05 | 96 | 1007.8 |
| 20260507103055 | 6 | 0 | 0.0 | 1.6 | 0.00 | 0.99 | 0.05 | 96 | 1007.8 |
| 20260507102548 | 6 | 0 | 0.0 | 0.0 | 0.00 | 0.99 | 0.05 | 96 | 1007.7 |
| 20260507102047 | 6 | 0 | 0.0 | 1.6 | 0.00 | 0.99 | 0.05 | 96 | 1007.3 |
| 20260507101550 | 6 | 0 | 0.0 | 1.6 | 0.00 | 0.99 | 0.05 | 96 | 1007.5 |
| 20260507101047 | 6 | 115 | 0.0 | 1.6 | 0.00 | 0.99 | 0.05 | 96 | 1007.6 |
| 20260507100546 | 6 | 116 | 0.0 | 1.6 | 0.00 | 0.99 | 0.05 | 96 | 1007.6 |
| 20260507100057 | 6 | 0 | 0.0 | 1.6 | 0.00 | 0.99 | 0.05 | 96 | 1007.5 |
| 20260507095544 | 6 | 0 | 0.0 | 1.6 | 0.00 | 0.99 | 0.05 | 96 | 1007.4 |
| 20260507095044 | 6 | 0 | 0.0 | 1.6 | 0.00 | 0.99 | 0.05 | 96 | 1007.6 |
| 20260507094554 | 6 | 0 | 0.0 | 1.6 | 0.00 | 0.99 | 0.05 | 96 | 1007.5 |
| 20260507094046 | 6 | 0 | 0.0 | 1.6 | 0.00 | 0.99 | 0.05 | 96 | 1007.5 |
| 20260507093548 | 6 | 0 | 0.0 | 1.6 | 0.00 | 0.99 | 0.05 | 96 | 1007.6 |
| 20260507093052 | 6 | 0 | 0.0 | 1.6 | 0.00 | 0.99 | 0.05 | 96 | 1007.8 |
| 20260507092547 | 6 | 0 | 0.0 | 1.6 | 0.00 | 0.99 | 0.05 | 96 | 1007.9 |
| 20260507092048 | 6 | 0 | 0.0 | 1.6 | 0.00 | 0.99 | 0.05 | 96 | 1007.9 |
| 20260507091549 | 6 | 116 | 0.0 | 1.6 | 0.00 | 0.99 | 0.05 | 96 | 1007.8 |
| 20260507091049 | 6 | 0 | 0.0 | 1.6 | 0.00 | 0.99 | 0.05 | 96 | 1007.9 |
| 20260507090549 | 6 | 0 | 0.0 | 6.4 | 0.00 | 0.99 | 0.05 | 96 | 1008.0 |
| 20260507090050 | 6 | 0 | 0.0 | 6.4 | 0.00 | 0.99 | 0.05 | 96 | 1007.7 |
| 20260507085550 | 6 | 115 | 0.0 | 6.4 | 0.00 | 0.99 | 0.05 | 96 | 1007.8 |
| 20260507085047 | 6 | 0 | 0.0 | 3.2 | 0.03 | 0.99 | 0.05 | 96 | 1007.9 |
| 20260507084557 | 6 | 0 | 0.0 | 3.2 | 0.03 | 0.99 | 0.05 | 96 | 1007.9 |
| 20260507084046 | 6 | 120 | 0.0 | 3.2 | 0.03 | 0.99 | 0.05 | 96 | 1008.1 |
| 20260507083547 | 6 | 120 | 0.0 | 3.2 | 0.03 | 0.99 | 0.05 | 96 | 1007.9 |
| 20260507083057 | 6 | 119 | 0.0 | 1.6 | 0.03 | 0.99 | 0.05 | 96 | 1008.2 |
| 20260507082544 | 6 | 120 | 0.0 | 1.6 | 0.03 | 0.99 | 0.05 | 96 | 1007.9 |
| 20260507082048 | 6 | 0 | 0.0 | 1.6 | 0.03 | 0.99 | 0.05 | 96 | 1007.7 |
| 20260507081554 | 6 | 0 | 0.0 | 1.6 | 0.05 | 0.99 | 0.05 | 96 | 1007.7 |
| 20260507081048 | 6 | 0 | 0.0 | 1.6 | 0.05 | 0.99 | 0.05 | 96 | 1007.8 |
| 20260507080548 | 6 | 0 | 0.0 | 1.6 | 0.05 | 0.99 | 0.05 | 95 | 1007.7 |
| 20260507080126 | 7 | 0 | 0.0 | 1.6 | 0.05 | 0.99 | 0.05 | 95 | 1008.0 |
| 20260507075551 | 7 | 0 | 0.0 | 1.6 | 0.05 | 0.99 | 0.05 | 95 | 1007.8 |
| 20260507075048 | 7 | 0 | 0.0 | 1.6 | 0.03 | 0.97 | 0.03 | 95 | 1007.4 |
| 20260507074603 | 7 | 0 | 0.0 | 1.6 | 0.03 | 0.97 | 0.03 | 95 | 1007.7 |
| 20260507074046 | 7 | 0 | 0.0 | 3.2 | 0.03 | 0.97 | 0.03 | 95 | 1007.2 |
| 20260507073548 | 7 | 0 | 0.0 | 3.2 | 0.03 | 0.97 | 0.03 | 95 | 1007.4 |
| 20260507073100 | 7 | 126 | 0.0 | 3.2 | 0.03 | 0.97 | 0.03 | 95 | 1007.6 |
| 20260507072547 | 7 | 147 | 0.0 | 3.2 | 0.03 | 0.97 | 0.03 | 95 | 1007.7 |
| 20260507072046 | 7 | 0 | 0.0 | 3.2 | 0.00 | 0.94 | 0.00 | 95 | 1008.0 |
| 20260507071602 | 7 | 135 | 0.0 | 1.6 | 0.00 | 0.94 | 0.00 | 95 | 1007.8 |
| 20260507071049 | 7 | 111 | 0.0 | 3.2 | 0.00 | 0.94 | 0.00 | 95 | 1007.8 |
| 20260507070544 | 7 | 0 | 0.0 | 3.2 | 0.00 | 0.94 | 0.00 | 95 | 1007.6 |
| 20260507070053 | 7 | 0 | 0.0 | 3.2 | 0.00 | 0.94 | 0.00 | 95 | 1007.2 |
| 20260507065546 | 7 | 0 | 0.0 | 3.2 | 0.00 | 0.94 | 0.00 | 95 | 1007.2 |
| 20260507065046 | 7 | 105 | 0.0 | 1.6 | 0.00 | 0.94 | 0.00 | 96 | 1007.2 |
| 20260507064559 | 7 | 0 | 0.0 | 1.6 | 0.00 | 0.94 | 0.00 | 95 | 1007.2 |
| 20260507064049 | 7 | 0 | 0.0 | 1.6 | 0.00 | 0.94 | 0.00 | 96 | 1007.0 |
| 20260507063544 | 7 | 139 | 0.0 | 1.6 | 0.00 | 0.94 | 0.00 | 96 | 1007.3 |
| 20260507063101 | 7 | 0 | 0.0 | 1.6 | 0.00 | 0.94 | 0.00 | 96 | 1007.1 |
| 20260507062546 | 7 | 0 | 0.0 | 0.0 | 0.00 | 0.94 | 0.00 | 96 | 1006.9 |
| 20260507062046 | 7 | 0 | 0.0 | 1.6 | 0.00 | 0.94 | 0.00 | 96 | 1007.1 |
| 20260507061550 | 7 | 0 | 0.0 | 1.6 | 0.00 | 0.94 | 0.00 | 96 | 1007.2 |
| 20260507061046 | 7 | 0 | 0.0 | 1.6 | 0.00 | 0.94 | 0.00 | 96 | 1007.3 |
| 20260507060547 | 7 | 0 | 0.0 | 0.0 | 0.00 | 0.94 | 0.00 | 95 | 1007.3 |
| 20260507060049 | 7 | 0 | 0.0 | 1.6 | 0.00 | 0.94 | 0.00 | 96 | 1007.2 |
| 20260507055547 | 7 | 0 | 0.0 | 1.6 | 0.00 | 0.94 | 0.00 | 95 | 1007.3 |
| 20260507055046 | 7 | 124 | 0.0 | 3.2 | 0.00 | 0.94 | 0.00 | 95 | 1007.6 |
| 20260507054605 | 7 | 0 | 0.0 | 3.2 | 0.00 | 0.94 | 0.00 | 95 | 1007.3 |
| 20260507054048 | 7 | 146 | 0.0 | 3.2 | 0.00 | 0.94 | 0.00 | 95 | 1007.3 |
| 20260507053544 | 8 | 0 | 0.0 | 3.2 | 0.00 | 0.94 | 0.00 | 95 | 1007.5 |
| 20260507053100 | 8 | 0 | 0.0 | 0.0 | 0.00 | 0.94 | 0.00 | 96 | 1007.8 |
| 20260507052550 | 8 | 0 | 0.0 | 0.0 | 0.00 | 0.94 | 0.00 | 96 | 1008.1 |
| 20260507052047 | 8 | 0 | 0.0 | 0.0 | 0.00 | 0.94 | 0.00 | 96 | 1008.0 |
| 20260507051558 | 8 | 0 | 0.0 | 1.6 | 0.00 | 0.94 | 0.00 | 96 | 1007.9 |
| 20260507051048 | 8 | 0 | 0.0 | 1.6 | 0.00 | 0.94 | 0.00 | 95 | 1007.9 |
| 20260507050549 | 8 | 0 | 0.0 | 1.6 | 0.00 | 0.94 | 0.00 | 95 | 1008.0 |
| 20260507050055 | 8 | 0 | 0.0 | 8.0 | 0.00 | 0.94 | 0.00 | 95 | 1007.7 |
| 20260507045549 | 8 | 0 | 0.0 | 8.0 | 0.00 | 0.94 | 0.00 | 95 | 1007.7 |
| 20260507045049 | 8 | 0 | 0.0 | 4.8 | 0.00 | 0.94 | 0.00 | 95 | 1007.7 |
| 20260507044551 | 8 | 0 | 0.0 | 3.2 | 0.00 | 0.94 | 0.00 | 95 | 1007.6 |
| 20260507044050 | 8 | 115 | 0.0 | 1.6 | 0.00 | 0.94 | 0.00 | 96 | 1007.6 |
| 20260507043548 | 8 | 0 | 0.0 | 4.8 | 0.00 | 0.94 | 0.00 | 96 | 1007.5 |
| 20260507043049 | 8 | 0 | 0.0 | 4.8 | 0.00 | 0.94 | 0.00 | 95 | 1007.2 |
| 20260507042549 | 8 | 172 | 0.0 | 6.4 | 0.00 | 0.94 | 0.00 | 96 | 1007.2 |
| 20260507042048 | 9 | 131 | 0.0 | 6.4 | 0.03 | 0.94 | 0.00 | 95 | 1007.3 |
| 20260507041559 | 9 | 0 | 0.0 | 6.4 | 0.03 | 0.94 | 0.00 | 95 | 1007.3 |
| 20260507041048 | 9 | 0 | 0.0 | 4.8 | 0.03 | 0.94 | 0.00 | 96 | 1007.5 |
| 20260507040550 | 9 | 0 | 0.0 | 4.8 | 0.05 | 0.94 | 0.00 | 95 | 1007.3 |
| 20260507040059 | 9 | 110 | 0.0 | 4.8 | 0.05 | 0.94 | 0.00 | 95 | 1007.3 |
| 20260507035549 | 10 | 144 | 1.6 | 8.0 | 0.05 | 0.94 | 0.94 | 95 | 1007.5 |
| 20260507035049 | 10 | 132 | 0.0 | 12.9 | 0.05 | 0.94 | 0.94 | 95 | 1007.5 |
| 20260507034557 | 10 | 0 | 0.0 | 12.9 | 0.05 | 0.94 | 0.94 | 95 | 1007.4 |
| 20260507034049 | 10 | 122 | 1.6 | 6.4 | 0.05 | 0.94 | 0.94 | 95 | 1007.4 |
| 20260507033549 | 10 | 138 | 0.0 | 6.4 | 0.05 | 0.94 | 0.94 | 96 | 1007.2 |
| 20260507033056 | 10 | 0 | 0.0 | 11.3 | 0.05 | 0.94 | 0.94 | 96 | 1007.1 |
| 20260507032549 | 10 | 19 | 1.6 | 11.3 | 0.05 | 0.94 | 0.94 | 96 | 1007.1 |
| 20260507032049 | 11 | 124 | 1.6 | 11.3 | 0.03 | 0.91 | 0.91 | 96 | 1007.1 |
| 20260507031556 | 11 | 110 | 0.0 | 3.2 | 0.03 | 0.91 | 0.91 | 96 | 1007.0 |
| 20260507031052 | 11 | 0 | 0.0 | 3.2 | 0.05 | 0.91 | 0.91 | 96 | 1006.9 |
| 20260507030549 | 11 | 150 | 0.0 | 3.2 | 0.03 | 0.89 | 0.89 | 96 | 1006.9 |
| 20260507030057 | 11 | 0 | 0.0 | 4.8 | 0.03 | 0.89 | 0.89 | 96 | 1006.8 |
| 20260507025548 | 11 | 0 | 0.0 | 4.8 | 0.03 | 0.89 | 0.89 | 96 | 1006.6 |
| 20260507025048 | 11 | 127 | 0.0 | 9.7 | 0.03 | 0.89 | 0.89 | 96 | 1006.5 |
| 20260507024555 | 11 | 120 | 1.6 | 9.7 | 0.03 | 0.89 | 0.89 | 95 | 1006.5 |
| 20260507024048 | 12 | 129 | 1.6 | 9.7 | 0.03 | 0.89 | 0.89 | 96 | 1006.6 |
| 20260507023552 | 12 | 128 | 0.0 | 4.8 | 0.03 | 0.89 | 0.89 | 96 | 1006.7 |
| 20260507023054 | 12 | 0 | 0.0 | 8.0 | 0.03 | 0.89 | 0.89 | 96 | 1006.5 |
| 20260507022548 | 12 | 89 | 1.6 | 8.0 | 0.03 | 0.89 | 0.89 | 96 | 1006.7 |
| 20260507022048 | 12 | 134 | 1.6 | 6.4 | 0.03 | 0.89 | 0.89 | 96 | 1006.6 |
| 20260507021555 | 12 | 0 | 0.0 | 8.0 | 0.03 | 0.89 | 0.89 | 96 | 1006.8 |
| 20260507021048 | 13 | 0 | 1.6 | 12.9 | 0.00 | 0.86 | 0.86 | 96 | 1006.6 |
| 20260507020549 | 13 | 0 | 0.0 | 12.9 | 0.00 | 0.86 | 0.86 | 96 | 1006.6 |
| 20260507020104 | 13 | 124 | 3.2 | 12.9 | 0.00 | 0.86 | 0.86 | 96 | 1006.6 |
| 20260507015547 | 13 | 0 | 1.6 | 8.0 | 0.00 | 0.86 | 0.86 | 96 | 1006.4 |
| 20260507015048 | 13 | 120 | 1.6 | 8.0 | 0.00 | 0.86 | 0.86 | 97 | 1006.4 |
| 20260507014606 | 13 | 147 | 0.0 | 6.4 | 0.00 | 0.86 | 0.86 | 97 | 1006.0 |
| 20260507014048 | 13 | 117 | 0.0 | 6.4 | 0.00 | 0.86 | 0.86 | 97 | 1006.0 |
| 20260507013547 | 13 | 137 | 0.0 | 8.0 | 0.00 | 0.86 | 0.86 | 97 | 1006.3 |
| 20260507013053 | 13 | 0 | 1.6 | 8.0 | 0.00 | 0.86 | 0.86 | 97 | 1006.2 |
| 20260507012547 | 13 | 115 | 1.6 | 6.4 | 0.00 | 0.86 | 0.86 | 97 | 1006.0 |
| 20260507012048 | 13 | 90 | 1.6 | 9.7 | 0.00 | 0.86 | 0.86 | 97 | 1006.0 |
| 20260507011601 | 13 | 83 | 1.6 | 9.7 | 0.00 | 0.86 | 0.86 | 97 | 1006.0 |
| 20260507011049 | 13 | 0 | 0.0 | 12.9 | 0.00 | 0.86 | 0.86 | 97 | 1006.0 |
| 20260507010548 | 13 | 160 | 0.0 | 12.9 | 0.00 | 0.86 | 0.86 | 97 | 1006.1 |
| 20260507010055 | 13 | 117 | 0.0 | 4.8 | 0.00 | 0.86 | 0.86 | 97 | 1006.0 |
| 20260507005548 | 13 | 0 | 0.0 | 11.3 | 0.03 | 0.86 | 0.86 | 97 | 1006.0 |
| 20260507005053 | 13 | 0 | 0.0 | 11.3 | 0.03 | 0.86 | 0.86 | 97 | 1006.1 |
| 20260507004553 | 13 | 0 | 0.0 | 8.0 | 0.03 | 0.86 | 0.86 | 97 | 1006.0 |
| 20260507004048 | 13 | 0 | 3.2 | 8.0 | 0.03 | 0.86 | 0.86 | 97 | 1006.0 |
| 20260507003549 | 13 | 265 | 1.6 | 8.0 | 0.03 | 0.86 | 0.86 | 97 | 1006.0 |
| 20260507003051 | 13 | 0 | 3.2 | 8.0 | 0.03 | 0.86 | 0.86 | 97 | 1005.8 |
| 20260507002548 | 13 | 349 | 1.6 | 9.7 | 0.03 | 0.86 | 0.86 | 97 | 1005.9 |
| 20260507002051 | 13 | 0 | 0.0 | 9.7 | 0.03 | 0.86 | 0.86 | 97 | 1005.8 |
| 20260507001607 | 13 | 129 | 3.2 | 9.7 | 0.03 | 0.86 | 0.86 | 97 | 1005.9 |
| 20260507001047 | 13 | 0 | 1.6 | 8.0 | 0.03 | 0.86 | 0.86 | 97 | 1005.8 |
| 20260507000549 | 13 | 115 | 3.2 | 8.0 | 0.03 | 0.86 | 0.86 | 97 | 1005.8 |
| 20260507000058 | 13 | 67 | 1.6 | 4.8 | 0.03 | 0.86 | 0.86 | 97 | 1005.8 |
| 20260506235548 | 13 | 0 | 0.0 | 8.0 | 0.00 | 0.84 | 0.84 | 97 | 1005.7 |
| 20260506235044 | 13 | 0 | 1.6 | 8.0 | 0.00 | 0.84 | 0.84 | 97 | 1005.8 |
| 20260506234554 | 13 | 129 | 0.0 | 3.2 | 0.00 | 0.84 | 0.84 | 97 | 1005.8 |
| 20260506234047 | 13 | 0 | 0.0 | 4.8 | 0.00 | 0.84 | 0.84 | 97 | 1005.8 |
| 20260506233549 | 13 | 188 | 0.0 | 9.7 | 0.03 | 0.84 | 0.84 | 96 | 1005.7 |
| 20260506233052 | 13 | 115 | 3.2 | 9.7 | 0.05 | 0.84 | 0.84 | 96 | 1005.6 |
| 20260506232553 | 13 | 0 | 0.0 | 6.4 | 0.08 | 0.84 | 0.84 | 96 | 1005.5 |
| 20260506232048 | 13 | 0 | 0.0 | 6.4 | 0.08 | 0.84 | 0.84 | 96 | 1005.5 |
| 20260506231551 | 13 | 0 | 1.6 | 6.4 | 0.10 | 0.84 | 0.84 | 96 | 1005.5 |
| 20260506231048 | 13 | 0 | 1.6 | 6.4 | 0.15 | 0.84 | 0.84 | 96 | 1005.7 |
| 20260506230556 | 13 | 145 | 0.0 | 6.4 | 0.15 | 0.84 | 0.84 | 96 | 1005.7 |
| 20260506230057 | 13 | 154 | 0.0 | 6.4 | 0.15 | 0.84 | 0.84 | 96 | 1005.7 |
| 20260506225550 | 13 | 345 | 0.0 | 8.0 | 0.15 | 0.84 | 0.84 | 96 | 1005.6 |
| 20260506225048 | 13 | 0 | 1.6 | 8.0 | 0.15 | 0.84 | 0.84 | 96 | 1005.7 |
| 20260506224600 | 13 | 153 | 1.6 | 8.0 | 0.15 | 0.84 | 0.84 | 96 | 1005.7 |
| 20260506224044 | 13 | 0 | 0.0 | 11.3 | 0.18 | 0.84 | 0.84 | 96 | 1005.8 |
| 20260506223548 | 13 | 75 | 0.0 | 11.3 | 0.15 | 0.81 | 0.81 | 96 | 1005.8 |
| 20260506223050 | 13 | 355 | 4.8 | 11.3 | 0.15 | 0.79 | 0.79 | 96 | 1005.9 |
| 20260506222548 | 13 | 269 | 0.0 | 6.4 | 0.13 | 0.76 | 0.76 | 96 | 1005.9 |
| 20260506222048 | 13 | 112 | 0.0 | 11.3 | 0.13 | 0.76 | 0.76 | 96 | 1005.8 |
| 20260506221553 | 13 | 334 | 4.8 | 12.9 | 0.10 | 0.74 | 0.74 | 96 | 1005.9 |
| 20260506221047 | 13 | 105 | 3.2 | 12.9 | 0.08 | 0.69 | 0.69 | 96 | 1005.7 |
| 20260506220547 | 13 | 149 | 1.6 | 11.3 | 0.10 | 0.69 | 0.69 | 96 | 1005.9 |
| 20260506220109 | 13 | 0 | 3.2 | 12.9 | 0.13 | 0.69 | 0.69 | 96 | 1006.0 |
| 20260506215548 | 13 | 0 | 0.0 | 16.1 | 0.15 | 0.69 | 0.69 | 96 | 1006.0 |
| 20260506215048 | 13 | 194 | 6.4 | 16.1 | 0.18 | 0.69 | 0.69 | 96 | 1005.9 |
| 20260506214558 | 13 | 137 | 1.6 | 11.3 | 0.18 | 0.69 | 0.69 | 96 | 1006.1 |
| 20260506214048 | 13 | 87 | 1.6 | 8.0 | 0.18 | 0.66 | 0.66 | 96 | 1006.0 |
| 20260506213547 | 13 | 153 | 0.0 | 9.7 | 0.20 | 0.66 | 0.66 | 96 | 1006.1 |
| 20260506213102 | 13 | 0 | 1.6 | 16.1 | 0.20 | 0.64 | 0.64 | 96 | 1006.0 |
| 20260506212548 | 13 | 0 | 1.6 | 16.1 | 0.23 | 0.64 | 0.64 | 96 | 1006.1 |
| 20260506212050 | 13 | 72 | 3.2 | 16.1 | 0.25 | 0.64 | 0.64 | 95 | 1006.0 |
| 20260506211554 | 13 | 56 | 1.6 | 14.5 | 0.28 | 0.64 | 0.64 | 95 | 1006.2 |
| 20260506211048 | 13 | 345 | 4.8 | 14.5 | 0.28 | 0.61 | 0.61 | 95 | 1006.1 |
| 20260506210548 | 13 | 197 | 0.0 | 14.5 | 0.28 | 0.58 | 0.58 | 95 | 1006.1 |
| 20260506210107 | 13 | 56 | 3.2 | 14.5 | 0.28 | 0.56 | 0.56 | 95 | 1006.2 |
| 20260506205544 | 13 | 133 | 3.2 | 12.9 | 0.25 | 0.53 | 0.53 | 95 | 1006.2 |
| 20260506205050 | 13 | 266 | 3.2 | 12.9 | 0.25 | 0.51 | 0.51 | 95 | 1006.3 |
| 20260506204600 | 13 | 0 | 1.6 | 12.9 | 0.25 | 0.51 | 0.51 | 95 | 1006.4 |
| 20260506204047 | 13 | 50 | 1.6 | 11.3 | 0.25 | 0.48 | 0.48 | 95 | 1006.3 |
| 20260506203547 | 14 | 105 | 1.6 | 11.3 | 0.25 | 0.46 | 0.46 | 95 | 1006.5 |
| 20260506203141 | 14 | 0 | 3.2 | 11.3 | 0.23 | 0.43 | 0.43 | 95 | 1006.6 |
| 20260506202550 | 14 | 0 | 3.2 | 20.9 | 0.20 | 0.41 | 0.41 | 95 | 1006.7 |
| 20260506202048 | 14 | 141 | 3.2 | 20.9 | 0.18 | 0.38 | 0.38 | 94 | 1006.7 |
| 20260506201555 | 14 | 164 | 4.8 | 20.9 | 0.15 | 0.36 | 0.36 | 94 | 1006.7 |
| 20260506201049 | 14 | 353 | 0.0 | 14.5 | 0.13 | 0.33 | 0.33 | 94 | 1006.7 |
| 20260506200548 | 14 | 141 | 4.8 | 14.5 | 0.10 | 0.30 | 0.30 | 94 | 1006.7 |
| 20260506200054 | 14 | 294 | 0.0 | 6.4 | 0.10 | 0.28 | 0.28 | 94 | 1006.7 |
| 20260506195548 | 14 | 65 | 1.6 | 8.0 | 0.10 | 0.28 | 0.28 | 94 | 1006.8 |
| 20260506195048 | 15 | 0 | 0.0 | 8.0 | 0.08 | 0.25 | 0.25 | 94 | 1006.8 |
| 20260506194554 | 15 | 78 | 1.6 | 8.0 | 0.10 | 0.25 | 0.25 | 93 | 1007.0 |
| 20260506194047 | 15 | 49 | 1.6 | 6.4 | 0.08 | 0.23 | 0.23 | 93 | 1007.1 |
| 20260506193547 | 15 | 121 | 0.0 | 6.4 | 0.05 | 0.20 | 0.20 | 94 | 1007.0 |
| 20260506193051 | 15 | 129 | 1.6 | 6.4 | 0.05 | 0.20 | 0.20 | 93 | 1007.0 |
| 20260506192549 | 15 | 0 | 1.6 | 6.4 | 0.05 | 0.20 | 0.20 | 93 | 1006.9 |
| 20260506192048 | 15 | 0 | 0.0 | 6.4 | 0.05 | 0.20 | 0.20 | 93 | 1007.1 |
| 20260506191554 | 15 | 0 | 0.0 | 12.9 | 0.08 | 0.20 | 0.20 | 93 | 1007.0 |
| 20260506191048 | 15 | 129 | 0.0 | 12.9 | 0.08 | 0.20 | 0.20 | 93 | 1007.0 |
| 20260506190548 | 15 | 0 | 3.2 | 12.9 | 0.10 | 0.20 | 0.20 | 93 | 1007.1 |
| 20260506190057 | 15 | 0 | 0.0 | 9.7 | 0.08 | 0.18 | 0.18 | 93 | 1007.0 |
| 20260506185548 | 15 | 341 | 1.6 | 9.7 | 0.10 | 0.18 | 0.18 | 93 | 1007.2 |
| 20260506185048 | 15 | 0 | 0.0 | 12.9 | 0.10 | 0.18 | 0.18 | 92 | 1006.8 |
| 20260506184600 | 15 | 131 | 3.2 | 12.9 | 0.10 | 0.15 | 0.15 | 92 | 1006.9 |
| 20260506184052 | 15 | 297 | 4.8 | 12.9 | 0.10 | 0.15 | 0.15 | 92 | 1006.9 |
| 20260506183548 | 15 | 292 | 3.2 | 9.7 | 0.13 | 0.15 | 0.15 | 91 | 1007.2 |
| 20260506183059 | 15 | 252 | 0.0 | 8.0 | 0.13 | 0.15 | 0.15 | 91 | 1007.2 |
| 20260506182548 | 15 | 10 | 1.6 | 8.0 | 0.15 | 0.15 | 0.15 | 91 | 1007.4 |
| 20260506182048 | 15 | 0 | 1.6 | 6.4 | 0.15 | 0.15 | 0.15 | 91 | 1007.3 |
| 20260506181600 | 15 | 305 | 0.0 | 8.0 | 0.13 | 0.13 | 0.13 | 91 | 1007.5 |
| 20260506181048 | 15 | 0 | 0.0 | 14.5 | 0.13 | 0.13 | 0.13 | 90 | 1007.6 |
| 20260506180548 | 15 | 155 | 1.6 | 14.5 | 0.10 | 0.10 | 0.10 | 90 | 1007.7 |
| 20260506180057 | 15 | 44 | 0.0 | 6.4 | 0.10 | 0.10 | 0.10 | 90 | 1007.8 |
| 20260506175548 | 15 | 123 | 0.0 | 8.0 | 0.08 | 0.08 | 0.08 | 89 | 1008.0 |
| 20260506175052 | 16 | 0 | 0.0 | 8.0 | 0.08 | 0.08 | 0.08 | 88 | 1008.1 |
| 20260506174608 | 16 | 122 | 1.6 | 8.0 | 0.05 | 0.05 | 0.05 | 86 | 1008.2 |
| 20260506174047 | 16 | 132 | 1.6 | 6.4 | 0.05 | 0.05 | 0.05 | 85 | 1008.1 |
| 20260506173545 | 17 | 153 | 0.0 | 8.0 | 0.03 | 0.03 | 0.03 | 82 | 1008.2 |
| 20260506173057 | 17 | 320 | 0.0 | 16.1 | 0.03 | 0.03 | 0.03 | 79 | 1008.1 |
| 20260506172544 | 18 | 113 | 4.8 | 16.1 | 0.00 | 0.00 | 0.00 | 76 | 1008.1 |
| 20260506172048 | 18 | 139 | 3.2 | 19.3 | 0.00 | 0.00 | 0.00 | 73 | 1008.0 |
| 20260506171605 | 18 | 91 | 3.2 | 19.3 | 0.00 | 0.00 | 0.00 | 72 | 1008.0 |
| 20260506171048 | 18 | 82 | 1.6 | 12.9 | 0.00 | 0.00 | 0.00 | 71 | 1007.9 |
| 20260506170548 | 18 | 90 | 4.8 | 12.9 | 0.00 | 0.00 | 0.00 | 71 | 1007.9 |
| 20260506170103 | 19 | 87 | 3.2 | 22.5 | 0.00 | 0.00 | 0.00 | 71 | 1008.0 |
| 20260506165548 | 19 | 274 | 4.8 | 22.5 | 0.00 | 0.00 | 0.00 | 70 | 1008.0 |
| 20260506165048 | 19 | 108 | 6.4 | 20.9 | 0.00 | 0.00 | 0.00 | 71 | 1008.0 |
| 20260506164558 | 19 | 50 | 6.4 | 22.5 | 0.00 | 0.00 | 0.00 | 70 | 1008.1 |
| 20260506164047 | 18 | 122 | 8.0 | 22.5 | 0.00 | 0.00 | 0.00 | 70 | 1008.1 |
| 20260506163548 | 19 | 329 | 3.2 | 20.9 | 0.00 | 0.00 | 0.00 | 70 | 1008.1 |
| 20260506163121 | 18 | 274 | 4.8 | 20.9 | 0.00 | 0.00 | 0.00 | 71 | 1008.1 |
| 20260506162548 | 18 | 120 | 1.6 | 9.7 | 0.00 | 0.00 | 0.00 | 71 | 1008.2 |
| 20260506162047 | 18 | 117 | 1.6 | 9.7 | 0.00 | 0.00 | 0.00 | 71 | 1008.4 |
| 20260506161557 | 18 | 11 | 1.6 | 9.7 | 0.00 | 0.00 | 0.00 | 72 | 1008.5 |
| 20260506161048 | 18 | 74 | 0.0 | 19.3 | 0.00 | 0.00 | 0.00 | 72 | 1008.7 |
| 20260506160547 | 18 | 137 | 1.6 | 19.3 | 0.00 | 0.00 | 0.00 | 72 | 1008.6 |
| 20260506160108 | 18 | 112 | 1.6 | 11.3 | 0.00 | 0.00 | 0.00 | 71 | 1008.6 |
| 20260506155548 | 18 | 0 | 3.2 | 16.1 | 0.00 | 0.00 | 0.00 | 71 | 1008.6 |
| 20260506155048 | 18 | 238 | 3.2 | 16.1 | 0.00 | 0.00 | 0.00 | 71 | 1008.7 |
| 20260506154554 | 19 | 100 | 1.6 | 9.7 | 0.00 | 0.00 | 0.00 | 71 | 1008.8 |
| 20260506154053 | 19 | 102 | 0.0 | 8.0 | 0.00 | 0.00 | 0.00 | 71 | 1008.8 |
| 20260506153544 | 19 | 144 | 0.0 | 11.3 | 0.00 | 0.00 | 0.00 | 73 | 1008.8 |
| 20260506153116 | 19 | 155 | 3.2 | 11.3 | 0.00 | 0.00 | 0.00 | 70 | 1008.8 |
| 20260506152550 | 19 | 141 | 1.6 | 12.9 | 0.00 | 0.00 | 0.00 | 71 | 1008.9 |
| 20260506152048 | 19 | 123 | 3.2 | 12.9 | 0.00 | 0.00 | 0.00 | 71 | 1008.9 |
| 20260506151552 | 18 | 120 | 1.6 | 9.7 | 0.00 | 0.00 | 0.00 | 72 | 1009.0 |
| 20260506151047 | 18 | 106 | 3.2 | 16.1 | 0.00 | 0.00 | 0.00 | 71 | 1009.1 |
| 20260506150547 | 18 | 70 | 3.2 | 16.1 | 0.00 | 0.00 | 0.00 | 72 | 1009.2 |
| 20260506150056 | 18 | 0 | 3.2 | 16.1 | 0.00 | 0.00 | 0.00 | 72 | 1009.2 |
| 20260506145551 | 19 | 336 | 3.2 | 12.9 | 0.00 | 0.00 | 0.00 | 72 | 1009.1 |
| 20260506145048 | 19 | 156 | 4.8 | 12.9 | 0.00 | 0.00 | 0.00 | 71 | 1009.4 |
| 20260506144557 | 19 | 304 | 1.6 | 11.3 | 0.00 | 0.00 | 0.00 | 72 | 1009.0 |
| 20260506144048 | 19 | 127 | 4.8 | 12.9 | 0.00 | 0.00 | 0.00 | 72 | 1008.9 |
| 20260506143548 | 19 | 104 | 3.2 | 12.9 | 0.00 | 0.00 | 0.00 | 72 | 1009.1 |
| 20260506143051 | 18 | 108 | 4.8 | 11.3 | 0.00 | 0.00 | 0.00 | 73 | 1009.3 |
| 20260506142549 | 18 | 117 | 3.2 | 9.7 | 0.00 | 0.00 | 0.00 | 72 | 1009.5 |
| 20260506142048 | 18 | 35 | 3.2 | 9.7 | 0.00 | 0.00 | 0.00 | 73 | 1009.2 |
| 20260506141553 | 18 | 0 | 0.0 | 9.7 | 0.00 | 0.00 | 0.00 | 74 | 1009.0 |
| 20260506141048 | 18 | 0 | 3.2 | 11.3 | 0.00 | 0.00 | 0.00 | 74 | 1009.1 |
| 20260506140551 | 18 | 0 | 4.8 | 11.3 | 0.00 | 0.00 | 0.00 | 74 | 1009.1 |
| 20260506140052 | 18 | 134 | 4.8 | 11.3 | 0.00 | 0.00 | 0.00 | 75 | 1009.1 |
| 20260506135547 | 18 | 312 | 1.6 | 14.5 | 0.00 | 0.00 | 0.00 | 75 | 1009.0 |
| 20260506135047 | 18 | 111 | 3.2 | 16.1 | 0.00 | 0.00 | 0.00 | 76 | 1008.9 |
| 20260506134555 | 17 | 161 | 4.8 | 16.1 | 0.00 | 0.00 | 0.00 | 76 | 1008.8 |
| 20260506134047 | 17 | 101 | 6.4 | 16.1 | 0.00 | 0.00 | 0.00 | 77 | 1009.0 |
| 20260506133547 | 17 | 98 | 0.0 | 17.7 | 0.00 | 0.00 | 0.00 | 77 | 1009.1 |